Location: Zapote
(9.9191°N, 84.0597°W)
Time: 10:42:05
(UTC-06:00)

Transit 2A - Visible Passes

Search period start: 27 February 2021 00:00
Search period end: 09 March 2021 00:00
Orbit: 600 x 958 km, 66.7° (Epoch: 26 February)

Date Brightness Start Highest point End Pass type
(mag) Time Alt. Az. Time Alt. Az. Time Alt. Az.
27 Feb 7.6 04:44:18 10° N 04:48:08 29° ENE 04:52:11 10° SE visible
27 Feb 9.1 19:09:50 10° W 19:12:03 12° WNW 19:14:10 10° NW visible
28 Feb 8.4 04:11:09 10° NNE 04:14:00 17° ENE 04:16:56 10° ESE visible
28 Feb 8.8 18:33:37 10° WSW 18:37:52 20° WNW 18:41:53 10° NNW visible
01 Mar 6.1 05:18:36 10° NW 05:22:44 38° WSW 05:27:08 10° S visible
01 Mar 8.2 17:58:27 10° SW 18:03:44 33° WNW 18:08:37 10° N visible
02 Mar 5.5 04:44:21 11° NNW 04:48:35 72° WSW 04:53:20 10° SSE visible
03 Mar 6.0 04:12:39 33° N 04:14:28 61° ENE 04:19:09 10° SSE visible
04 Mar 7.3 03:40:55 32° E 03:40:55 32° E 03:44:36 10° SE visible
04 Mar 7.6 05:22:04 10° W 05:23:15 11° WSW 05:24:27 10° SW visible
04 Mar 9.4 18:03:12 10° W 18:04:20 11° WNW 18:05:26 10° NW visible
05 Mar 8.7 03:09:06 12° ESE 03:09:06 12° ESE 03:09:31 10° ESE visible
05 Mar 7.1 04:49:41 19° WSW 04:49:41 19° WSW 04:52:33 10° SSW visible
06 Mar 7.5 04:17:46 19° SSW 04:17:46 19° SSW 04:19:19 10° S visible
